Location: B
(0.0000°N, 0.0000°E)
Time: 17:41:53
(UTC+02:00)

ISS - All Passes

Search period start: 26 April 2015 00:00
Search period end: 06 May 2015 00:00
Orbit: 395 x 402 km, 51.6° (Epoch: 26 April)

Date Brightness Start Highest point End Pass type
(mag) Time Alt. Az. Time Alt. Az. Time Alt. Az.
26 Apr - 10:33:23 10° SW 10:36:37 87° NW 10:39:51 10° NE daylight
26 Apr - 22:06:27 10° NNW 22:09:34 49° NE 22:12:43 10° SE visible
27 Apr - 09:39:44 10° S 09:42:33 28° SE 09:45:23 10° ENE daylight
27 Apr - 21:13:19 10° NNE 21:15:26 17° NE 21:17:40 10° E visible
27 Apr - 22:49:54 10° W 22:51:42 14° SW 22:53:22 10° SSW night (unlit)
28 Apr - 08:47:57 10° SE 08:48:21 10° SE 08:48:56 10° ESE daylight
28 Apr - 10:22:00 10° WSW 10:24:37 22° NW 10:27:11 10° N daylight
28 Apr - 21:54:28 10° NW 21:57:30 38° SW 22:00:31 10° SSE visible
29 Apr - 09:27:14 10° SW 09:30:26 72° NW 09:33:39 10° NNE daylight
29 Apr - 21:00:09 10° NNW 21:03:19 60° NE 21:06:31 10° SE visible
30 Apr - 08:33:19 10° SSW 08:36:15 32° SE 08:39:11 10° ENE daylight
30 Apr - 20:06:42 10° N 20:09:04 19° NE 20:11:31 10° ESE daylight
30 Apr - 21:43:57 10° WSW 21:45:20 12° SW 21:46:33 10° SSW visible
01 May - 07:40:44 10° SSE 07:41:55 12° SE 07:43:16 10° ESE daylight
01 May - 09:15:44 10° WSW 09:18:10 19° NW 09:20:32 10° N daylight
01 May - 20:48:02 10° WNW 20:50:59 32° SW 20:53:55 10° SSE visible
02 May - 08:20:41 10° SW 08:23:51 60° NW 08:27:01 10° NNE daylight
02 May - 19:53:28 10° NNW 19:56:40 71° NE 19:59:53 10° SE daylight
03 May - 07:26:31 10° SSW 07:29:31 37° SE 07:32:32 10° NE visible
03 May - 18:59:45 10° N 19:02:18 22° NE 19:04:54 10° ESE daylight
03 May - 20:37:49 10° WSW 20:38:33 10° SW 20:39:06 10° SW visible
04 May - 06:33:30 10° SSE 06:35:05 13° SE 06:36:49 10° E visible
04 May - 08:09:05 10° W 08:11:19 17° NW 08:13:28 10° N daylight
04 May - 19:41:12 10° WNW 19:44:03 28° SW 19:46:54 10° S daylight
05 May - 07:13:44 10° SW 07:16:52 51° NW 07:20:00 10° NNE visible
05 May - 18:46:24 10° NNW 18:49:37 83° ENE 18:52:50 10° SE daylight
